1496455201.06,27466,19.94,74036.3,-0.53,-35.29,-35.83,0,*67
1496455202.28,27467,19.94,74036.5,-0.57,-35.17,-35.83,0,*6F
1496455203.54,27468,19.94,74038.5,-0.55,-35.29,-35.95,0,*68
1496455204.75,27469,19.94,74036.3,-0.57,-35.29,-35.89,0,*66
1496455206.02,27470,19.94,74040.0,-0.59,-35.35,-35.89,0,*6D
1496455207.24,27471,19.94,74036.3,-0.57,-35.53,-36.01,0,*61
1496455208.49,27472,19.94,74036.0,-0.59,-35.53,-36.01,0,*6C
1496455209.7,27473,19.94,74038.0,-0.57,-35.47,-36.01,0,*66
1496455210.95,27474,19.94,74040.3,-0.59,-35.53,-36.01,0,*6A
1496455212.21,27475,19.94,74034.8,-0.59,-35.35,-35.89,0,*68
1496455213.45,27476,19.94,74036.5,-0.59,-35.47,-36.01,0,*6D
1496455214.7,27477,19.94,74036.0,-0.59,-35.53,-36.01,0,*69
1496455215.95,27478,19.94,74034.8,-0.59,-35.53,-36.01,0,*66
1496455217.2,27479,19.94,74036.3,-0.59,-35.53,-35.89,0,*64
1496455218.44,27480,19.94,74034.5,-0.61,-35.59,-35.95,0,*6E
1496455219.66,27481,19.94,74034.0,-0.61,-35.41,-35.89,0,*6B
1496455220.89,27482,19.94,74038.3,-0.61,-35.41,-35.89,0,*68
1496455222.12,27483,19.94,74036.0,-0.61,-35.59,-35.95,0,*6D
1496455223.4,27484,19.94,74032.0,-0.63,-35.53,-35.95,0,*62
1496455224.65,27485,19.94,74032.8,-0.63,-35.59,-35.95,0,*69
1496455225.91,27486,19.94,74034.5,-0.63,-35.59,-35.95,0,*6A
1496455227.14,27487,19.94,74032.0,-0.61,-35.41,-35.89,0,*6D
1496455228.37,27488,19.94,74038.8,-0.61,-35.41,-35.89,0,*62
1496455229.62,27489,19.94,74032.8,-0.63,-35.59,-35.95,0,*65
1496455230.82,27490,19.94,74032.3,-0.61,-35.71,-36.07,0,*6D
1496455232.08,27491,19.94,74032.0,-0.63,-35.35,-35.77,0,*6A
1496455233.34,27492,19.94,74034.8,-0.67,-35.47,-35.95,0,*64
1496455234.54,27493,19.94,74032.5,-0.69,-35.47,-35.89,0,*66
1496455235.81,27494,19.94,74034.3,-0.67,-35.41,-35.65,0,*6B
1496455237.09,27495,19.94,74032.8,-0.67,-35.23,-35.65,0,*6E
1496455238.31,27496,19.94,74036.0,-0.69,-35.29,-35.65,0,*69
1496455239.57,27497,19.94,74036.5,-0.67,-35.07,-35.29,0,*62
1496455240.8,27498,19.94,74034.3,-0.67,-35.13,-35.47,0,*60
1496455242.08,27499,19.94,74034.8,-0.67,-35.41,-35.83,0,*6E
1496455243.33,27500,19.94,74038.5,-0.67,-35.47,-35.95,0,*6E
1496455244.56,27501,19.94,74036.3,-0.69,-35.59,-35.95,0,*6E
1496455245.84,27502,19.94,74038.3,-0.67,-35.41,-35.95,0,*6A
1496455247.07,27503,19.94,74038.3,-0.69,-35.23,-35.71,0,*6B
1496455248.27,27504,19.94,74034.5,-0.69,-35.29,-35.71,0,*66
1496455249.54,27505,19.94,74036.0,-0.67,-35.41,-35.83,0,*6A
1496455250.8,27506,19.94,74032.8,-0.67,-35.47,-35.95,0,*68
1496455252.01,27507,19.94,74032.5,-0.69,-35.47,-36.01,0,*69
1496455253.22,27508,19.94,74038.5,-0.69,-35.65,-36.07,0,*60
1496455254.43,27509,19.94,74036.3,-0.69,-35.29,-35.71,0,*6B
1496455255.66,27510,19.94,74038.5,-0.69,-35.07,-35.47,0,*6A
1496455256.91,27511,19.94,74038.5,-0.67,-35.07,-35.59,0,*6A
1496455258.14,27512,19.94,74038.0,-0.69,-35.17,-35.83,0,*61
1496455259.34,27513,19.94,74036.5,-0.69,-35.29,-35.71,0,*60
1496455260.57,27514,19.94,74036.0,-0.69,-35.29,-35.83,0,*6A
1496455261.79,27515,19.94,74038.5,-0.69,-35.13,-35.53,0,*6F
1496455263.05,27516,19.94,74036.3,-0.67,-35.07,-35.29,0,*6A
1496455264.28,27517,19.94,74034.3,-0.69,-35.13,-35.53,0,*6D
1496455265.5,27518,19.94,74036.3,-0.69,-34.95,-35.17,0,*6D
1496455266.7,27519,19.94,74038.8,-0.69,-34.89,-35.17,0,*61
1496455267.94,27520,19.94,74038.8,-0.67,-34.71,-35.01,0,*65
1496455269.17,27521,19.94,74038.0,-0.67,-34.89,-35.13,0,*60
1496455270.43,27522,19.94,74036.5,-0.67,-34.65,-35.01,0,*62
1496455271.66,27523,19.94,74038.0,-0.69,-34.59,-34.95,0,*6E
1496455272.89,27524,19.94,74036.5,-0.67,-34.47,-34.89,0,*65
1496455274.16,27525,19.94,74038.3,-0.67,-34.53,-35.01,0,*60
1496455275.41,27526,19.94,74038.3,-0.63,-34.47,-34.83,0,*69
1496455276.66,27527,19.94,74038.8,-0.67,-34.35,-34.71,0,*64
1496455277.94,27528,19.94,74036.5,-0.67,-34.31,-34.83,0,*62
1496455279.17,27529,19.94,74038.8,-0.67,-34.47,-34.89,0,*68
1496455280.43,27530,19.94,74036.5,-0.59,-34.35,-34.71,0,*6F
1496455281.66,27531,19.94,74038.0,-0.61,-34.47,-34.83,0,*6D
1496455282.89,27532,19.94,74036.0,-0.61,-34.47,-34.95,0,*69
1496455284.11,27533,19.94,74038.5,-0.61,-34.41,-34.83,0,*69
1496455285.34,27534,19.94,74036.8,-0.61,-34.41,-34.95,0,*69
1496455286.55,27535,19.94,74036.5,-0.61,-34.59,-35.01,0,*6D
1496455287.77,27536,19.94,74040.8,-0.61,-34.41,-34.83,0,*6C
1496455288.98,27537,19.94,74038.5,-0.61,-34.59,-35.01,0,*6F
1496455290.21,27538,19.94,74036.0,-0.61,-34.47,-34.95,0,*63
1496455291.45,27539,19.94,74040.5,-0.61,-34.59,-34.95,0,*6D
1496455292.68,27540,19.94,74040.8,-0.61,-34.47,-34.95,0,*6C
1496455293.92,27541,19.94,74040.5,-0.59,-34.59,-35.01,0,*65
1496455295.19,27542,19.94,74036.8,-0.59,-34.59,-34.95,0,*6A
1496455296.42,27543,19.94,74038.5,-0.59,-34.59,-34.89,0,*66
1496455297.68,27544,19.94,74042.8,-0.59,-34.53,-34.89,0,*6B
1496455298.92,27545,19.94,74042.3,-0.59,-34.59,-35.01,0,*61
1496455300.15,27546,19.94,74040.5,-0.59,-34.89,-35.29,0,*65
1496455301.35,27547,19.94,74042.8,-0.57,-34.89,-35.29,0,*6A
1496455302.56,27548,19.94,74036.8,-0.57,-34.71,-35.17,0,*6F
1496455303.8,27549,19.94,74042.3,-0.57,-34.71,-34.95,0,*65
1496455305.04,27550,19.94,74038.5,-0.59,-34.59,-35.01,0,*65
1496455306.27,27551,19.94,74038.8,-0.59,-34.77,-35.01,0,*68
1496455307.54,27552,19.94,74042.0,-0.59,-34.71,-34.95,0,*61
1496455308.8,27553,19.94,74040.3,-0.59,-34.71,-34.95,0,*60
1496455310.03,27554,19.94,74036.3,-0.57,-34.53,-34.89,0,*64
1496455311.26,27555,19.94,74036.0,-0.57,-34.53,-34.89,0,*65
1496455312.46,27556,19.94,74038.3,-0.57,-34.41,-34.77,0,*64
1496455313.71,27557,19.94,74042.0,-0.55,-34.53,-34.71,0,*62
1496455314.94,27558,19.94,74036.5,-0.53,-34.53,-34.71,0,*6B
1496455316.22,27559,19.94,74036.8,-0.55,-34.53,-34.83,0,*61
1496455317.47,27560,19.94,74036.5,-0.55,-34.53,-34.71,0,*66
1496455318.72,27561,19.94,74030.3,-0.55,-34.83,-35.13,0,*6F
1496455319.98,27562,19.94,74034.3,-0.55,-34.95,-35.29,0,*62
1496455321.18,27563,19.94,74038.3,-0.53,-35.13,-35.59,0,*6D
1496455322.4,27564,19.94,74034.3,-0.53,-35.23,-35.59,0,*69
1496455323.65,27565,19.94,74034.0,-0.55,-35.29,-35.65,0,*6B
1496455324.9,27566,19.94,74034.3,-0.55,-35.23,-35.59,0,*6D
1496455326.14,27567,19.94,74032.5,-0.55,-35.23,-35.59,0,*6C
1496455327.34,27568,19.94,74034.8,-0.53,-35.29,-35.59,0,*6F
1496455328.59,27569,19.94,74032.3,-0.55,-35.41,-35.77,0,*6A
1496455329.82,27570,19.94,74034.3,-0.57,-35.29,-35.53,0,*68
1496455331.05,27571,19.94,74038.3,-0.57,-35.29,-35.53,0,*69
1496455332.3,27572,19.94,74032.8,-0.55,-35.07,-35.47,0,*61
1496455333.5,27573,19.94,74034.0,-0.57,-35.13,-35.47,0,*67
1496455334.73,27574,19.94,74034.3,-0.57,-35.13,-35.53,0,*65
1496455335.97,27575,19.94,74032.5,-0.59,-35.17,-35.65,0,*6B
1496455337.2,27576,19.94,74030.3,-0.57,-35.29,-35.65,0,*6B
1496455338.42,27577,19.94,74038.3,-0.57,-35.17,-35.53,0,*62
1496455339.65,27578,19.94,74032.0,-0.59,-35.29,-35.71,0,*6E
1496455340.9,27579,19.94,74038.5,-0.59,-35.17,-35.53,0,*62
1496455342.16,27580,19.94,74032.5,-0.59,-35.13,-35.53,0,*60
1496455343.41,27581,19.94,74032.5,-0.59,-35.29,-35.53,0,*68
1496455344.67,27582,19.94,74032.5,-0.59,-35.29,-35.65,0,*6E
1496455345.92,27583,19.94,74032.8,-0.59,-35.13,-35.53,0,*63
1496455347.14,27584,19.94,74038.3,-0.57,-35.13,-35.35,0,*6A
1496455348.39,27585,19.94,74034.5,-0.59,-35.13,-35.53,0,*65
1496455349.65,27586,19.94,74032.0,-0.59,-35.01,-35.35,0,*65
1496455350.88,27587,19.94,74034.8,-0.57,-35.17,-35.53,0,*6D
1496455352.11,27588,19.94,74032.5,-0.59,-35.29,-35.71,0,*61
1496455353.36,27589,19.94,74034.5,-0.59,-35.35,-35.71,0,*6D
1496455354.59,27590,19.94,74036.8,-0.61,-35.41,-35.89,0,*6A
1496455355.81,27591,19.94,74036.0,-0.61,-35.41,-35.89,0,*6B
1496455357.04,27592,19.94,74034.3,-0.61,-35.35,-35.77,0,*6A
1496455358.27,27593,19.94,74036.3,-0.61,-35.17,-35.41,0,*6E
1496455359.52,27594,19.94,74036.5,-0.61,-34.95,-35.35,0,*61
1496455360.78,27595,19.94,74036.3,-0.59,-35.01,-35.35,0,*67
1496455362.0,27596,19.94,74032.5,-0.57,-35.13,-35.53,0,*69
1496455363.23,27597,19.94,74036.3,-0.61,-35.23,-35.77,0,*68
1496455364.48,27598,19.94,74036.8,-0.61,-35.23,-35.53,0,*61
1496455365.73,27599,19.94,74038.3,-0.61,-34.95,-35.23,0,*6B
1496455366.98,27600,19.94,74034.0,-0.63,-35.17,-35.41,0,*65
1496455368.24,27601,19.94,74036.8,-0.59,-35.01,-35.35,0,*69
1496455369.52,27602,19.94,74038.0,-0.63,-35.07,-35.23,0,*62
1496455370.75,27603,19.94,74038.8,-0.61,-35.01,-35.23,0,*67
1496455372.0,27604,19.94,74036.0,-0.61,-34.95,-35.23,0,*6C
1496455373.28,27605,19.94,74038.8,-0.63,-34.95,-35.23,0,*6F
1496455374.55,27606,19.94,74036.0,-0.63,-34.83,-35.23,0,*6B
1496455375.81,27607,19.94,74038.8,-0.61,-34.95,-35.07,0,*69
1496455377.06,27608,19.94,74034.5,-0.61,-34.83,-35.23,0,*67
1496455378.31,27609,19.94,74038.0,-0.61,-35.07,-35.53,0,*6C
1496455379.57,27610,19.94,74038.3,-0.63,-35.01,-35.35,0,*60
1496455380.82,27611,19.94,74038.8,-0.61,-34.95,-35.35,0,*6F
1496455382.05,27612,19.94,74038.0,-0.61,-35.17,-35.53,0,*67
1496455383.27,27613,19.94,74038.5,-0.59,-35.13,-35.47,0,*6C
1496455384.51,27614,19.94,74038.0,-0.59,-35.01,-35.47,0,*68
1496455385.74,27615,19.94,74038.0,-0.57,-35.13,-35.53,0,*61
1496455386.97,27616,19.94,74036.8,-0.59,-35.01,-35.47,0,*6A
1496455388.23,27617,19.94,74040.0,-0.61,-35.07,-35.53,0,*63
1496455389.48,27618,19.94,74034.5,-0.61,-35.07,-35.35,0,*6C
1496455390.71,27619,19.94,74038.8,-0.61,-35.07,-35.59,0,*67
1496455391.96,27620,19.94,74036.5,-0.61,-35.07,-35.41,0,*64
1496455393.22,27621,19.94,74038.3,-0.61,-35.07,-35.53,0,*66
1496455394.44,27622,19.94,74036.8,-0.61,-35.17,-35.53,0,*64
1496455395.7,27623,19.94,74038.5,-0.61,-35.07,-35.41,0,*67
1496455396.95,27624,19.94,74038.0,-0.61,-35.07,-35.53,0,*63
1496455398.17,27625,19.94,74036.5,-0.61,-35.17,-35.53,0,*63
1496455399.39,27626,19.94,74034.0,-0.61,-35.17,-35.53,0,*60
1496455400.63,27627,19.94,74036.5,-0.61,-35.01,-35.41,0,*65
1496455401.83,27628,19.94,74034.3,-0.61,-35.01,-35.47,0,*6C
1496455403.03,27629,19.94,74034.5,-0.61,-35.17,-35.59,0,*65
1496455404.26,27630,19.94,74038.0,-0.61,-35.01,-35.35,0,*60
1496455405.51,27631,19.94,74036.3,-0.61,-34.83,-35.07,0,*6B
1496455406.77,27632,19.94,74038.8,-0.61,-35.07,-35.41,0,*67
1496455408.02,27633,19.94,74038.8,-0.63,-35.17,-35.41,0,*65
1496455409.24,27634,19.94,74034.5,-0.61,-35.01,-35.23,0,*63
1496455410.5,27635,19.94,74038.0,-0.59,-35.01,-35.35,0,*6E
1496455411.75,27636,19.94,74036.3,-0.59,-35.17,-35.35,0,*6A
1496455412.98,27637,19.94,74038.8,-0.59,-34.77,-34.89,0,*6A
1496455414.24,27638,19.94,74038.0,-0.61,-35.07,-35.41,0,*6D
1496455415.47,27639,19.94,74036.0,-0.61,-35.01,-35.35,0,*69
1496455416.69,27640,19.94,74036.0,-0.61,-35.01,-35.23,0,*60
1496455417.9,27641,19.94,74034.3,-0.61,-34.47,-34.77,0,*62
1496455419.13,27642,19.94,74036.8,-0.59,-34.41,-34.71,0,*6A
1496455420.39,27643,19.94,74036.8,-0.59,-34.53,-34.71,0,*68
1496455421.62,27644,19.94,74032.8,-0.59,-34.89,-35.01,0,*6E
1496455422.88,27645,19.94,74038.0,-0.59,-34.95,-35.17,0,*65
1496455424.11,27646,19.94,74036.8,-0.59,-35.13,-35.47,0,*6C
1496455425.36,27647,19.94,74036.8,-0.61,-35.07,-35.35,0,*66
1496455426.59,27648,19.94,74036.5,-0.61,-35.17,-35.53,0,*68
1496455427.84,27649,19.94,74036.8,-0.59,-35.13,-35.35,0,*66
1496455429.09,27650,19.94,74038.8,-0.59,-34.95,-35.17,0,*61
1496455430.33,27651,19.94,74038.8,-0.59,-34.59,-34.77,0,*67
1496455431.56,27652,19.94,74040.0,-0.59,-34.41,-34.77,0,*6D
1496455432.79,27653,19.94,74036.0,-0.57,-34.35,-34.59,0,*6D
1496455434.01,27654,19.94,74036.8,-0.57,-34.25,-34.53,0,*61
1496455435.27,27655,19.94,74038.8,-0.59,-34.35,-34.71,0,*6F
1496455436.53,27656,19.94,74038.8,-0.59,-34.53,-34.71,0,*6C
1496455437.75,27657,19.94,74038.0,-0.57,-34.35,-34.71,0,*63
1496455438.98,27658,19.94,74034.3,-0.57,-34.35,-34.59,0,*66
1496455440.21,27659,19.94,74038.5,-0.57,-34.53,-34.77,0,*6B
1496455441.44,27660,19.94,74036.0,-0.57,-34.35,-34.59,0,*6D
1496455442.63,27661,19.94,74036.5,-0.57,-34.41,-34.71,0,*65
1496455443.83,27662,19.94,74038.8,-0.57,-34.41,-34.59,0,*6C
1496455445.06,27663,19.94,74038.0,-0.57,-34.07,-34.53,0,*65
1496455446.34,27664,19.94,74038.5,-0.55,-34.01,-34.31,0,*62
1496455447.61,27665,19.94,74038.0,-0.55,-34.01,-34.31,0,*63
1496455448.88,27666,19.94,74036.8,-0.55,-34.19,-34.53,0,*6D
1496455450.16,27667,19.94,74040.3,-0.55,-34.19,-34.53,0,*6C
1496455451.36,27668,19.94,74036.8,-0.53,-34.47,-34.71,0,*6E
1496455452.6,27669,19.94,74038.8,-0.55,-34.47,-34.71,0,*69
1496455453.85,27670,19.94,74032.8,-0.55,-34.47,-34.83,0,*6C
1496455455.11,27671,19.94,74038.8,-0.53,-34.65,-34.95,0,*6C
1496455456.34,27672,19.94,74038.0,-0.55,-34.47,-34.71,0,*63
1496455457.59,27673,19.94,74036.3,-0.53,-34.65,-34.83,0,*69
1496455458.84,27674,19.94,74036.3,-0.53,-34.83,-34.95,0,*61
1496455460.08,27675,19.94,74038.8,-0.53,-34.83,-35.29,0,*66
1496455461.33,27676,19.94,74040.0,-0.55,-34.95,-35.29,0,*64
1496455462.54,27677,19.94,74038.3,-0.53,-34.71,-35.13,0,*60
1496455463.78,27678,19.94,74036.5,-0.53,-34.71,-34.95,0,*60
1496455465.01,27679,19.94,74042.0,-0.53,-34.71,-34.95,0,*61
1496455466.29,27680,19.94,74040.0,-0.55,-34.65,-34.95,0,*64
1496455467.54,27681,19.94,74040.3,-0.53,-34.83,-35.23,0,*67
1496455468.75,27682,19.94,74038.8,-0.53,-34.89,-35.29,0,*64
1496455470.0,27683,19.94,74036.5,-0.53,-34.83,-35.23,0,*65
1496455471.25,27684,19.94,74040.8,-0.53,-34.65,-34.95,0,*66
1496455472.51,27685,19.94,74042.0,-0.55,-34.95,-35.47,0,*60
1496455473.74,27686,19.94,74042.8,-0.53,-35.23,-35.77,0,*6A
1496455474.97,27687,19.94,74038.5,-0.55,-35.13,-35.77,0,*6E
1496455476.18,27688,19.94,74040.5,-0.53,-35.29,-35.77,0,*6E
1496455477.43,27689,19.94,74038.5,-0.55,-35.23,-35.77,0,*63
1496455478.68,27690,19.94,74040.0,-0.55,-35.13,-35.65,0,*6B
1496455479.92,27691,19.94,74040.5,-0.55,-35.29,-35.65,0,*63
1496455481.2,27692,19.94,74040.5,-0.55,-35.07,-35.41,0,*6A
1496455482.4,27693,19.94,74042.3,-0.53,-34.89,-35.13,0,*6D
1496455483.64,27694,19.94,74040.5,-0.55,-34.71,-35.13,0,*6B
1496455484.88,27695,19.94,74038.3,-0.55,-34.89,-35.23,0,*6E
1496455486.14,27696,19.94,74036.8,-0.55,-34.83,-35.29,0,*6D
1496455487.38,27697,19.94,74038.3,-0.55,-34.89,-35.23,0,*6C
1496455488.63,27698,19.94,74038.3,-0.55,-34.83,-34.89,0,*68
1496455489.89,27699,19.94,74040.0,-0.55,-34.71,-34.95,0,*69
1496455491.15,27700,19.94,74040.5,-0.55,-34.71,-34.95,0,*68
1496455492.43,27701,19.94,74042.5,-0.55,-34.83,-34.95,0,*64
1496455493.7,27702,19.94,74042.0,-0.55,-34.95,-35.23,0,*6C
1496455494.95,27703,19.94,74036.5,-0.55,-34.89,-35.23,0,*60
1496455496.2,27704,19.94,74040.0,-0.55,-34.95,-35.29,0,*60
1496455497.46,27705,19.94,74042.3,-0.55,-34.95,-35.47,0,*69
1496455498.74,27706,19.94,74040.5,-0.55,-35.07,-35.41,0,*66
1496455499.96,27707,19.94,74040.5,-0.55,-34.89,-35.13,0,*67
1496455501.21,27708,19.94,74042.5,-0.55,-34.65,-34.89,0,*68
1496455502.49,27709,19.94,74040.0,-0.55,-34.65,-34.95,0,*64
1496455503.77,27710,19.94,74042.0,-0.55,-34.83,-35.41,0,*6C
1496455505.05,27711,19.94,74042.3,-0.55,-34.95,-35.41,0,*6A
1496455506.26,27712,19.94,74042.3,-0.53,-35.13,-35.77,0,*65
1496455507.5,27713,19.94,74044.5,-0.55,-35.13,-35.65,0,*61
1496455508.77,27714,19.94,74044.5,-0.55,-35.23,-35.65,0,*65
1496455510.03,27715,19.94,74044.8,-0.55,-35.23,-35.77,0,*67
1496455511.28,27716,19.94,74042.5,-0.55,-35.23,-35.77,0,*64
1496455512.53,27717,19.94,74042.3,-0.57,-35.35,-35.83,0,*6B
1496455513.78,27718,19.94,74042.3,-0.57,-35.35,-35.83,0,*64
1496455514.98,27719,19.94,74044.0,-0.57,-35.29,-35.71,0,*65
1496455516.23,27720,19.94,74042.3,-0.59,-35.17,-35.65,0,*69
1496455517.46,27721,19.94,74040.0,-0.59,-35.13,-35.71,0,*69
1496455518.69,27722,19.94,74042.5,-0.59,-35.29,-35.71,0,*63
1496455519.92,27723,19.94,74042.5,-0.59,-35.17,-35.71,0,*6F
1496455521.18,27724,19.94,74042.0,-0.59,-35.35,-35.89,0,*6F
1496455522.44,27725,19.94,74040.0,-0.59,-35.35,-35.89,0,*6E
1496455523.7,27726,19.94,74040.0,-0.59,-35.35,-35.89,0,*6D
1496455524.96,27727,19.94,74040.8,-0.59,-35.29,-35.83,0,*6B
1496455526.22,27728,19.94,74040.8,-0.59,-35.47,-35.83,0,*6C
1496455527.45,27729,19.94,74040.0,-0.57,-35.29,-35.83,0,*6B
1496455528.7,27730,19.94,74036.3,-0.63,-35.41,-35.77,0,*61
1496455529.96,27731,19.94,74042.5,-0.61,-35.07,-35.41,0,*65
1496455531.21,27732,19.94,74036.5,-0.61,-35.07,-35.35,0,*65
1496455532.46,27733,19.94,74038.0,-0.61,-35.07,-35.35,0,*64
1496455533.69,27734,19.94,74038.8,-0.61,-35.01,-35.23,0,*62
1496455534.95,27735,19.94,74036.8,-0.61,-35.07,-35.41,0,*61
1496455536.17,27736,19.94,74038.5,-0.61,-35.07,-35.59,0,*6B
1496455537.39,27737,19.94,74036.3,-0.61,-35.35,-35.59,0,*6B
1496455538.64,27738,19.94,74036.0,-0.63,-35.35,-35.71,0,*6C
1496455539.84,27739,19.94,74032.5,-0.61,-35.17,-35.71,0,*6F
1496455541.07,27740,19.94,74034.8,-0.61,-35.35,-35.89,0,*66
1496455542.29,27741,19.94,74032.0,-0.61,-35.17,-35.53,0,*60
1496455543.51,27742,19.94,74032.8,-0.61,-35.23,-35.71,0,*64
1496455544.71,27743,19.94,74032.3,-0.61,-35.17,-35.59,0,*68
1496455545.97,27744,19.94,74030.5,-0.63,-35.41,-35.89,0,*63
1496455547.19,27745,19.94,74034.3,-0.61,-35.41,-35.89,0,*60
1496455548.45,27746,19.94,74032.0,-0.63,-35.35,-35.77,0,*63
1496455549.7,27747,19.94,74034.8,-0.63,-35.23,-35.59,0,*69
1496455550.96,27748,19.94,74032.8,-0.63,-35.35,-35.77,0,*6D
1496455552.21,27749,19.94,74032.5,-0.63,-35.23,-35.59,0,*67
1496455553.46,27750,19.94,74032.8,-0.61,-35.07,-35.41,0,*62
1496455554.71,27751,19.94,74030.0,-0.63,-35.17,-35.41,0,*60
1496455555.96,27752,19.94,74030.3,-0.63,-35.17,-35.53,0,*60
1496455557.24,27753,19.94,74028.3,-0.63,-34.83,-34.95,0,*66
1496455558.5,27754,19.94,74030.3,-0.63,-34.77,-34.83,0,*6D
1496455559.7,27755,19.94,74028.8,-0.61,-34.59,-34.77,0,*69
1496455560.94,27756,19.94,74028.8,-0.63,-34.59,-34.77,0,*68
1496455562.22,27757,19.94,74028.3,-0.63,-34.65,-34.83,0,*6D
1496455563.47,27758,19.94,74028.8,-0.61,-34.65,-34.95,0,*67
1496455564.73,27759,19.94,74026.5,-0.61,-34.65,-34.83,0,*61
1496455565.98,27760,19.94,74030.8,-0.63,-34.41,-34.65,0,*67
1496455567.19,27761,19.94,74028.3,-0.61,-34.59,-34.77,0,*6E
1496455568.45,27762,19.94,74026.3,-0.59,-34.53,-34.71,0,*6A
1496455569.68,27763,19.94,74028.3,-0.57,-34.53,-34.71,0,*65
1496455570.91,27764,19.94,74028.8,-0.59,-34.77,-34.89,0,*6D
1496455572.14,27765,19.94,74030.0,-0.57,-34.95,-35.17,0,*68
1496455573.37,27766,19.94,74026.8,-0.59,-34.89,-35.01,0,*6F
1496455574.6,27767,19.94,74024.3,-0.59,-34.89,-35.01,0,*6E
1496455575.87,27768,19.94,74028.5,-0.59,-34.95,-35.29,0,*66
1496455577.09,27769,19.94,74026.0,-0.57,-35.29,-35.35,0,*62
1496455578.29,27770,19.94,74024.3,-0.57,-35.13,-35.47,0,*66
1496455579.52,27771,19.94,74024.3,-0.59,-35.17,-35.47,0,*6D
1496455580.78,27772,19.94,74026.5,-0.59,-35.01,-35.35,0,*6C
1496455582.04,27773,19.94,74030.3,-0.57,-34.95,-34.95,0,*64
1496455583.27,27774,19.94,74028.8,-0.59,-35.01,-35.01,0,*6D
1496455584.54,27775,19.94,74028.3,-0.59,-34.95,-35.01,0,*60
1496455585.82,27776,19.94,74026.5,-0.59,-34.35,-34.53,0,*6F
1496455587.08,27777,19.94,74030.3,-0.59,-34.53,-34.71,0,*6E
1496455588.27,27778,19.94,74028.3,-0.57,-34.25,-34.41,0,*6D
1496455589.52,27779,19.94,74030.3,-0.59,-34.19,-34.41,0,*6D
1496455590.74,27780,19.94,74028.8,-0.57,-34.25,-34.53,0,*69
1496455591.94,27781,19.94,74032.8,-0.57,-34.41,-34.59,0,*60
1496455593.23,27782,19.94,74030.8,-0.55,-34.53,-34.65,0,*6D
1496455594.45,27783,19.94,74028.0,-0.53,-34.71,-34.83,0,*62
1496455595.7,27784,19.94,74034.0,-0.53,-34.65,-34.83,0,*60
1496455596.94,27785,19.94,74030.3,-0.53,-34.47,-34.65,0,*69
1496455598.19,27786,19.94,74032.8,-0.55,-34.35,-34.47,0,*69
1496455599.4,27787,19.94,74034.0,-0.53,-34.71,-34.89,0,*6C
1496455600.66,27788,19.94,74032.8,-0.55,-34.47,-34.65,0,*62
1496455601.88,27789,19.94,74034.3,-0.53,-34.83,-34.89,0,*6F
1496455603.11,27790,19.88,74030.0,-0.53,-34.65,-34.71,0,*68
1496455604.37,27791,19.94,74032.0,-0.53,-34.35,-34.53,0,*6C
1496455605.59,27792,19.94,74032.8,-0.53,-34.53,-34.71,0,*6F
1496455606.85,27793,19.94,74034.5,-0.51,-34.41,-34.65,0,*6A
1496455608.06,27794,19.94,74032.3,-0.53,-34.47,-34.71,0,*6C
1496455609.29,27795,19.94,74038.0,-0.53,-34.65,-34.71,0,*6D
1496455610.52,27796,19.94,74034.8,-0.53,-34.71,-34.95,0,*61
1496455611.73,27797,19.94,74034.8,-0.53,-34.71,-34.89,0,*6D
1496455612.98,27798,19.94,74038.3,-0.53,-34.95,-35.23,0,*69
1496455614.2,27799,19.94,74038.8,-0.53,-34.89,-35.23,0,*65
1496455615.45,27800,19.94,74036.5,-0.53,-34.83,-34.95,0,*6C
1496455616.68,27801,19.94,74036.3,-0.53,-34.89,-34.95,0,*67
1496455617.96,27802,19.94,74034.0,-0.51,-34.83,-35.07,0,*66
1496455619.16,27803,19.94,74034.8,-0.49,-34.89,-35.17,0,*65
1496455620.41,27804,19.94,74034.5,-0.51,-34.77,-35.07,0,*6B
1496455621.69,27805,19.94,74038.8,-0.51,-34.83,-35.07,0,*61
1496455622.94,27806,19.94,74034.8,-0.51,-34.89,-35.35,0,*69
1496455624.2,27807,19.94,74036.8,-0.51,-35.01,-35.35,0,*69
1496455625.46,27808,19.94,74036.3,-0.51,-35.07,-35.59,0,*6A
1496455626.7,27809,19.94,74038.5,-0.53,-35.23,-35.65,0,*60
1496455627.93,27810,19.94,74034.8,-0.53,-35.13,-35.41,0,*6D
1496455629.18,27811,19.94,74038.0,-0.53,-34.95,-35.41,0,*63
1496455630.46,27812,19.94,74034.8,-0.55,-35.07,-35.41,0,*6C
1496455631.74,27813,19.94,74036.3,-0.55,-34.95,-35.41,0,*67
1496455632.97,27814,19.94,74036.0,-0.53,-35.07,-35.47,0,*6A
1496455634.22,27815,19.94,74032.8,-0.53,-35.07,-35.41,0,*6D
1496455635.45,27816,19.94,74038.0,-0.55,-35.13,-35.59,0,*64
1496455636.67,27817,19.94,74036.5,-0.55,-35.13,-35.59,0,*65
1496455637.92,27818,19.94,74034.8,-0.55,-35.23,-35.77,0,*65
1496455639.19,27819,19.94,74036.5,-0.55,-35.41,-35.83,0,*6B
1496455640.44,27820,19.94,74036.5,-0.55,-35.41,-35.77,0,*6A
1496455641.69,27821,19.94,74034.8,-0.55,-35.29,-35.65,0,*66
1496455642.92,27822,19.94,74036.8,-0.55,-35.29,-35.77,0,*66
1496455644.12,27823,19.94,74036.3,-0.53,-35.29,-35.59,0,*6D
1496455645.34,27824,19.94,74038.8,-0.55,-35.13,-35.59,0,*65
1496455646.56,27825,19.94,74036.5,-0.55,-35.13,-35.59,0,*64
1496455647.78,27826,19.94,74034.5,-0.55,-35.13,-35.59,0,*67
1496455649.03,27827,19.94,74036.8,-0.55,-35.29,-35.65,0,*60
1496455650.23,27828,19.94,74038.8,-0.57,-35.17,-35.71,0,*65
1496455651.5,27829,19.94,74038.0,-0.55,-35.23,-35.65,0,*64
1496455652.72,27830,19.94,74036.3,-0.57,-35.29,-35.65,0,*64
1496455653.94,27831,19.94,74034.5,-0.57,-35.35,-35.71,0,*6D
1496455655.17,27832,19.94,74038.8,-0.59,-35.29,-35.71,0,*6D
1496455656.4,27833,19.94,74036.3,-0.57,-35.17,-35.53,0,*6F
1496455657.6,27834,19.94,74036.5,-0.57,-35.13,-35.47,0,*69
1496455658.85,27835,19.94,74038.8,-0.59,-35.17,-35.65,0,*62
1496455660.1,27836,19.94,74036.0,-0.59,-35.17,-35.53,0,*64
1496455661.35,27837,19.94,74038.0,-0.59,-35.13,-35.35,0,*61
1496455662.59,27838,19.94,74034.8,-0.59,-35.01,-35.47,0,*68
1496455663.84,27839,19.94,74034.8,-0.59,-34.95,-35.17,0,*60
1496455665.04,27840,19.94,74034.8,-0.57,-34.89,-35.17,0,*6D
1496455666.24,27841,19.94,74032.5,-0.57,-34.89,-35.17,0,*6C
1496455667.5,27842,19.94,74036.3,-0.59,-34.95,-35.29,0,*61
1496455668.71,27843,19.94,74036.5,-0.57,-35.01,-35.29,0,*62
1496455669.94,27844,19.94,74036.5,-0.59,-34.89,-35.17,0,*67
1496455671.17,27845,19.94,74038.5,-0.57,-34.77,-34.95,0,*62
1496455672.38,27846,19.94,74036.5,-0.57,-34.77,-35.01,0,*6D
1496455673.6,27847,19.94,74038.0,-0.59,-34.89,-35.17,0,*64
1496455674.84,27848,19.94,74036.0,-0.59,-34.77,-35.17,0,*6A
1496455676.05,27849,19.94,74036.3,-0.57,-34.77,-35.01,0,*62
1496455677.29,27850,19.94,74036.8,-0.59,-34.77,-35.29,0,*6E
1496455678.52,27851,19.94,74036.3,-0.59,-34.59,-34.89,0,*68
1496455679.72,27852,19.94,74036.3,-0.57,-34.77,-35.17,0,*6F
1496455680.92,27853,19.94,74034.8,-0.57,-34.89,-35.17,0,*6F
1496455682.15,27854,19.94,74036.3,-0.57,-34.59,-34.95,0,*6E
1496455683.36,27855,19.94,74034.5,-0.57,-34.71,-35.17,0,*6E
1496455684.56,27856,19.94,74038.8,-0.57,-34.59,-35.17,0,*67
1496455685.77,27857,19.94,74038.0,-0.57,-34.77,-35.29,0,*67
1496455687.0,27858,19.94,74038.8,-0.57,-34.89,-35.35,0,*64
1496455688.23,27859,19.94,74038.0,-0.57,-34.95,-35.47,0,*6D
1496455689.49,27860,19.94,74038.0,-0.59,-34.95,-35.47,0,*69
1496455690.72,27861,19.94,74038.0,-0.57,-35.01,-35.35,0,*6F
1496455691.95,27862,19.94,74036.5,-0.59,-34.71,-35.17,0,*64
1496455693.16,27863,19.94,74036.0,-0.57,-34.89,-35.47,0,*69
1496455694.38,27864,19.94,74038.3,-0.57,-34.89,-35.35,0,*6B
1496455695.61,27865,19.94,74032.5,-0.57,-34.53,-34.89,0,*6B